St. Joseph, KS

8:32 PM CDT on March 26, 2017 (GMT -0500)
Rosecrans Memorial

Weather History for KSTJ - September, 2014

Change the Weather History Date:

Thursday, September 4, 2014

  Actual Average Record
Temperature  
Mean Temperature 84 °F 71 °F  
Max Temperature 92 °F 83 °F 102 °F (1913)
Min Temperature 75 °F 59 °F 34 °F (1974)
Degree Days  
Heating Degree Days 0 1  
Month to date heating degree days 0 2  
Since 1 July heating degree days 6 7  
Cooling Degree Days 19 6  
Month to date cooling degree days 46 27  
Year to date cooling degree days 1095 1104  
Growing Degree Days 33 (Base 50)    
Moisture  
Dew Point 71 °F    
Average Humidity 66    
Maximum Humidity 82    
Minimum Humidity 49    
Precipitation  
Precipitation 0.00 in 0.15 in 1.33 in (1951)
Month to date precipitation 0.54 0.61  
Year to date precipitation 23.09 26.91  
Sea Level Pressure  
Sea Level Pressure 29.82 in    
Wind  
Wind Speed 13 mph (South)    
Max Wind Speed 22 mph    
Max Gust Speed 30 mph    
Visibility 10 miles    
Events      
T = Trace of Precipitation, MM = Missing Value Source: NWS Daily Summary

Daily Weather History Graph

Daily Weather History Graph

Search for Another Location

Airport or City:

Trip Planner

Search our weather history database for the weather conditions in past years. The results will help you decide how hot, cold, wet, or windy it might be!

Date:

Astronomy

Sep. 04, 2014 Rise Set
Actual Time 6:50 AM CDT 7:46 PM CDT
Civil Twilight 6:22 AM CDT 8:13 PM CDT
Nautical Twilight 5:50 AM CDT 8:46 PM CDT
Astronomical Twilight 5:16 AM CDT 9:19 PM CDT
Moon 4:24 PM CDT (9/4) 1:42 AM CDT (9/4)
Length of Visible Light 13h 50m
Length of Day
12h 55m
Waxing Gibbous, 74% of the Moon is Illuminated
Sep 4
Waxing Gibbous
Sep 8
Full
Sep 15
Last Quarter
Sep 24
New
Oct 1
First Quarter

Hourly Weather History & Observations

Time (CDT) Temp. Heat Index Dew Point Humidity Pressure Visibility Wind Dir Wind Speed Gust Speed Precip Events Conditions
12:53 AM 79.0 °F - 72.0 °F 79% 29.79 in 10.0 mi South 12.7 mph - N/A   Clear
1:53 AM 79.0 °F - 72.0 °F 79% 29.79 in 10.0 mi South 11.5 mph - N/A   Clear
2:53 AM 78.1 °F - 72.0 °F 81% 29.79 in 10.0 mi South 9.2 mph 18.4 mph N/A   Clear
3:53 AM 77.0 °F - 72.0 °F 84% 29.79 in 10.0 mi South 10.4 mph - N/A   Clear
4:53 AM 77.0 °F - 71.1 °F 82% 29.79 in 10.0 mi South 10.4 mph - N/A   Clear
5:53 AM 75.9 °F - 70.0 °F 82% 29.79 in 10.0 mi South 11.5 mph - N/A   Clear
7:53 AM 77.0 °F - 70.0 °F 79% 29.81 in 10.0 mi SSW 11.5 mph - N/A   Clear
8:53 AM 79.0 °F - 71.1 °F 77% 29.82 in 10.0 mi SSW 17.3 mph - N/A   Clear
9:53 AM 82.0 °F 86.3 °F 71.1 °F 69% 29.83 in 10.0 mi SSW 13.8 mph 23.0 mph N/A   Clear
10:53 AM 84.9 °F 90.1 °F 71.1 °F 63% 29.83 in 10.0 mi SSW 17.3 mph - N/A   Clear
11:53 AM 87.1 °F 93.6 °F 72.0 °F 61% 29.83 in 10.0 mi SSW 18.4 mph 23.0 mph N/A   Clear
12:53 PM 89.1 °F 95.0 °F 71.1 °F 55% 29.82 in 10.0 mi South 17.3 mph 25.3 mph N/A   Clear
1:53 PM 91.0 °F 98.2 °F 72.0 °F 53% 29.81 in 10.0 mi SSW 12.7 mph 26.5 mph N/A   Clear
2:53 PM 91.9 °F 98.4 °F 71.1 °F 50% 29.81 in 10.0 mi South 15.0 mph 24.2 mph N/A   Clear
3:53 PM 91.9 °F 97.4 °F 70.0 °F 48% 29.80 in 10.0 mi SSW 18.4 mph 26.5 mph N/A   Clear
4:53 PM 91.0 °F 96.6 °F 70.0 °F 50% 29.80 in 10.0 mi SSW 17.3 mph 24.2 mph N/A   Clear
5:53 PM 90.0 °F 95.4 °F 70.0 °F 52% 29.81 in 10.0 mi South 16.1 mph - N/A   Clear
6:53 PM 87.1 °F 92.8 °F 71.1 °F 59% 29.82 in 10.0 mi South 9.2 mph - N/A   Clear
7:01 PM 87.1 °F 92.8 °F 71.1 °F 59% 29.85 in 10.0 mi South 9.2 mph - N/A   Clear
7:53 PM 81.0 °F 84.9 °F 71.1 °F 72% 29.84 in 10.0 mi South 8.1 mph - N/A   Clear
8:53 PM 79.0 °F - 72.0 °F 79% 29.86 in 10.0 mi South 8.1 mph - N/A   Clear
9:53 PM 80.1 °F 83.2 °F 70.0 °F 71% 29.88 in 10.0 mi South 9.2 mph - N/A   Clear
10:53 PM 80.1 °F 82.7 °F 68.0 °F 67% 29.89 in 10.0 mi South 9.2 mph - N/A   Clear
11:53 PM 81.0 °F 84.1 °F 69.1 °F 67% 29.89 in 10.0 mi South 16.1 mph - N/A   Mostly Cloudy